Aeroporto :
LOGIN :

Iscrizione | Disclaimer

   EN    FR    IT 

 










Sommario :    VFR   VFR Marginale   IFR   IFR Intensivo   IFR Molto Intensivo
Visibilità : 
Base nubi : 
>= 8 km
>= 3000ft
5 / 8 km
1000 / 3000 ft
1500m / 5 km
500 / 1000 ft
800 / 1500m
200 / 500 ft
< 800m
< 200 ft
Simboli :   Temporali  Nebbia  Neve Forte  Precipitazioni Forti  Vento > 20 kt
SIGMETs :   Varie  Temporali  Ghiacco  Turbolenza  Onda orograficha  Ceneri Vulcaniche







- Altitudine del aeroporto : 989 ft
- Codice IATA : TRN


LIMF - Torino Caselle

ULTIMO METAR :
  • 202250Z VRB01KT CAVOK 01/01 Q1011

METARs OBSOLETI :
  • 202220Z 29005KT 8000 SCT050 02/02 Q1011
  • 202150Z 23004KT 8000 SCT050 02/02 Q1011
  • 202120Z VRB02KT 7000 SCT050 03/02 Q1011
  • 202050Z 31003KT 7000 SCT100 03/03 Q1010
  • 202020Z 30004KT 7000 SCT100 03/03 Q1010

TAF TAF LIMF
Valido dal 20 a 18 ore il 21 a 18 ore UTC


201700Z 2018/2118 VRB05KT 7000 BKN050
TEMPO 2109/2115 RA
TEMPO 2110/2116 RA
Nessun NOTAM noto per questo aeroporto.



MetMap, La meteo Aeronautica in un colpo d'occhio ! - Copyright ORBIFLY Dicembre 2007 - Disclaimer

ORBIFLY MET'MAP TEAM :

Programmazione e sviluppo : Alexandra Zaïnal
Concezione e sviluppo : Baudouin d'Aumeries
Co-Programmazione e sviluppo : Marc-Olivier Méhu
Supporto tecnico e logistico : Manuel Goepfert
Aiuto per la traduzione : Arnaldo La Scala

Contatto : metmap@orbifly.com




FONTI E CREDITI :

   NOAA